Regional Weather Roundup
Issued by NWS Portland, ME

Home | Current Version | Previous Version | Text Only | Print | Product List | Glossary On
Versions: 1 2 3 4 5 6 7 8 9 10 11 12 13 14 15 16 17 18 19 20 21 22 23 24 25 26 27 28 29 30 31 32 33 34 35 36 37 38 39 40 41 42 43 44 45 46 47 48 49 50
000
ASUS41 KGYX 020010
RWRGYX
WEATHER ROUNDUP FOR MAINE AND NEW HAMPSHIRE
NATIONAL WEATHER SERVICE GRAY ME
800 PM EDT SAT AUG 01 2015

MEZ002-005-006-010-012-015-018-020-021-024-026-027-029-020100-
MAINE

CITY           SKY/WX    TMP DP  RH WIND       PRES   REMARKS
PORTLAND       PTCLDY    77  57  50 W6        29.73R
6HR MIN TEMP:  77; 6HR MAX TEMP:  86;

SANFORD        CLEAR     75  54  46 CALM      29.75R
BAR HARBOR     CLEAR     66  66 100 SW6       29.71R
WISCASSET      CLEAR     71  62  73 CALM      29.74R
6HR MIN TEMP:  70; 6HR MAX TEMP:  85;

ROCKLAND       CLEAR     70  61  73 CALM      29.71R
FRYEBURG       PTCLDY    67  62  84 CALM      29.75R
6HR MIN TEMP:  67; 6HR MAX TEMP:  84;

LEWISTONAUBURN CLEAR     73  61  64 CALM      29.74R
AUGUSTA        CLEAR     72  63  73 CALM      29.73R
6HR MIN TEMP:  59; 6HR MAX TEMP:  82; 6HR PCP:  0.43;

WATERVILLE     CLEAR     70  59  68 W3        29.70R
BANGOR         PTCLDY    72  57  59 CALM      29.71R
6HR MIN TEMP:  72; 6HR MAX TEMP:  83;

GREENVILLE       N/A     65  55  70 CALM      29.73R
6HR MIN TEMP:  57; 6HR MAX TEMP:  71; 6HR PCP:  0.20;

MILLINOCKET    CLEAR     68  65  90 CALM      29.70R
6HR MIN TEMP:  65; 6HR MAX TEMP:  75; 6HR PCP:  0.14;

HOULTON        MOCLDY    66  61  84 S5        29.66R
6HR MIN TEMP:  62; 6HR MAX TEMP:  82; 6HR PCP:  0.03;

PRESQUE ISLE   MOCLDY    68  57  68 SW6       29.66R
FRENCHVILLE    MOCLDY    62  57  83 W12       29.65R
6HR MIN TEMP:  60; 6HR MAX TEMP:  70; 6HR PCP:  0.15;

CARIBOU        MOCLDY    63  60  90 S3        29.65R
6HR MIN TEMP:  61; 6HR MAX TEMP:  71; 6HR PCP:  0.21;

$$

NHZ002-005-008-009-011-012-014-020100-
NEW HAMPSHIRE

CITY           SKY/WX    TMP DP  RH WIND       PRES   REMARKS
PORTSMOUTH     PTCLDY    77  56  47 NW6       29.72R
ROCHESTER      CLEAR     76  57  51 CALM      29.73R
6HR MIN TEMP:  75; 6HR MAX TEMP:  87;

NASHUA         PTCLDY    77  56  48 W5        29.76R
MANCHESTER     PTCLDY    80  55  42 W5        29.73R
6HR MIN TEMP:  80; 6HR MAX TEMP:  87;

CONCORD        PTCLDY    78  57  48 NW7       29.75R
6HR MIN TEMP:  78; 6HR MAX TEMP:  87;

LACONIA        CLEAR     73  54  49 W6        29.75R
PLYMOUTH       MOCLDY    71  65  82 CALM      29.76R
BERLIN         CLEAR     69  57  65 CALM      29.77R
6HR MIN TEMP:  69; 6HR MAX TEMP:  76; 6HR PCP: TRACE;

WHITEFIELD     PTCLDY    66  60  81 W3        29.78R
6HR MIN TEMP:  66; 6HR MAX TEMP:  76;

JAFFREY        CLEAR     75  51  43 W5        29.81R
6HR MIN TEMP:  75; 6HR MAX TEMP:  82;

KEENE          CLEAR     77  52  41 NW6       29.79R
LEBANON        PTCLDY    68  60  75 E3        29.77R
6HR MIN TEMP:  68; 6HR MAX TEMP:  84;

MT WASHINGTON  FOG       46  46 100 W35         N/A  VSB 1/16
6HR MIN TEMP:  45; 6HR MAX TEMP:  49; 6HR PCP:  0.01;

$$

VTZ005-007-008-020100-
VERMONT

CITY           SKY/WX    TMP DP  RH WIND       PRES   REMARKS
ST JOHNSBURY     N/A     71  57  61 MISG      29.75R
MONTPELIER     MOCLDY    66  60  81 SW5       29.82R
BURLINGTON     MOCLDY    75  54  47 W9        29.76R
$$

MAZ007-012-024-CTZ003-RIZ002-NYZ038-NYZ072-020100-
SOUTHERN NEW ENGLAND AND NY

CITY           SKY/WX    TMP DP  RH WIND       PRES   REMARKS
BOSTON         PTCLDY    79  59  50 W10       29.75R
WORCESTER      CLEAR     72  62  71 SW6       29.81R
NANTUCKET      CLEAR     73  70  90 SW13      29.79R
PROVIDENCE     MOCLDY    78  61  55 W5        29.78R
HARTFORD       PTCLDY    78  62  57 W5        29.77R
ALBANY         PTCLDY    76  54  46 NW8       29.80R
NEW YORK CITY  PTCLDY    84  56  38 NW14G20   29.79R
$$

ANZ081-ANZ082-ANZ150-NHZ014-MEZ023>029-020100-
COASTAL MARINE OBSERVATIONS

STATION/POSITION TIME  TEMP    WIND        PRES    WAVE
                       AIR SEA DIR/SP/G            HT/PER
                 (UTC) (F)     (DEG/KT/KT) (MB)    (FT/S)
MOUNT DESERT ROC 0000   66     260/ 16/ 17 1006.6R
MATINICUS ROCK   2300   66     290/ 10/ 11 1005.8R
ISLE OF SHOALS   2300   80     260/ 13/ 13 1005.4R
JEFFREYS LEDGE   2303      68                N/A     3/ 9
CASHES LEDGE BUO 2350   69                 1006.3R   4/ 9
GEORGES BANK BUO 2350   71 68  210/ 12/ 14 1009.3R   7/10
$$

.............KEY..............
   WCI - WIND CHILL
   TC  - TEMPERATURE IN CELSIUS
   VSB - VISIBILITY IN MILES
   HX  - HEAT INDEX
   FAIR- INDICATES FEW OR NO CLOUDS BELOW 12,000 FT, WITH NO
         SIGNIFICANT WEATHER AND/OR OBSTRUCTIONS TO VISIBILITY.





USA.gov is the U.S. government's official web portal to all federal, state and local government web resources and services.